Location: Unspecified
(48.7670°N, 0.0000°E)
Time: 04:23:31
(UTC+00:00)

Altair - Pass Details

Date: 21 June 2019
Orbit: 1501 x 1683 km, 47.2° (Epoch: 12 October)

Event Time Altitude Azimuth Distance (km) Brightness Sun altitude
Rises 20:54:08 0° 241° (WSW) 4,717 10.2 -6.5°
Reaches altitude 10° 20:57:09 10° 239° (WSW) 3,757 9.7 -6.9°
Maximum altitude 21:06:37 69° 159° (SSE) 1,710 7.6 -7.9°
Drops below altitude 10° 21:16:30 10° 79° (E) 3,905 9.4 -8.9°
Sets 21:19:42 0° 78° (ENE) 4,910 9.9 -9.2°
